Meteo Giornale » Osservazioni meteo Svizzera » Emmen

ore: 15:20 - Osservazioni Meteo Emmen
Lat. 47° 6' N Lon. 8° 18' E Alt. 427 metri s.l.m.

molto_nuvoloso

25 °C

Molto Nuvoloso

Temp. 24 Ore

16 °C

28 °C

Nord

9.3 Km/h

Dew point 13 °C

Umidità 47 %

Visibilità  10 Km

Il sole sorge alle ore 06:44

Il sole tramonta alle ore 20:09

Data e Ora Cielo e Fenomeni T °C DP °C Um. % Pres. hPa Vis. km Vento km/h
Oggi h: 15:20 molto_nuvoloso Molto Nuvoloso 25 13 47 1019 10 N 9.3
Oggi h: 14:50 molto_nuvoloso Molto Nuvoloso 24 13 50 1019 10 N 0
Oggi h: 14:20 molto_nuvoloso Molto Nuvoloso 24 13 50 1019 10 N 3.7
Oggi h: 13:50 molto_nuvoloso Molto Nuvoloso 23 13 53 1019 10 O 9.3
Oggi h: 13:20 nuvoloso Nuvoloso 23 13 53 1020 10 O/NO 11.1
Oggi h: 12:50 molto_nuvoloso Molto Nuvoloso 22 12 53 1020 10 O 13
Oggi h: 12:20 molto_nuvoloso Molto Nuvoloso 22 12 53 1020 10 O/NO 14.8
Oggi h: 11:50 molto_nuvoloso Molto Nuvoloso 21 11 52 1020 10 NO 13
Oggi h: 11:20 coperto Coperto 21 13 60 1020 10 NO 11.1
Oggi h: 10:50 coperto Coperto 20 13 64 1020 10 NO 13
Oggi h: 10:20 coperto Coperto 20 14 68 1019 10 NO 9.3
Oggi h: 09:50 coperto Coperto 20 15 72 1019 10 N 5.5
Oggi h: 09:20 molto_nuvoloso Molto Nuvoloso 19 16 82 1019 10 E 7.4
Oggi h: 08:50 molto_nuvoloso Molto Nuvoloso 18 16 88 1019 10 N 3.7
Oggi h: 08:20 molto_nuvoloso Molto Nuvoloso 18 16 88 1019 10 E 9.3
Oggi h: 07:50 molto_nuvoloso Molto Nuvoloso 17 16 93 1019 10 N 1.8
Oggi h: 07:20 poco_nuvoloso Poco Nuvoloso 17 15 88 1018 10 N 1.8
Oggi h: 06:50 nuvoloso Nuvoloso 16 15 93 1018 10 N 1.8
Oggi h: 06:20 molto_nuvoloso Molto Nuvoloso 17 16 93 1018 10 N 0
Oggi h: 05:50 poco_nuvoloso Poco Nuvoloso 17 16 93 1018 10 N 1.8
Oggi h: 05:20 poco_nuvoloso Poco Nuvoloso 18 15 82 1018 10 N 3.7
Oggi h: 04:50 molto_nuvoloso Molto Nuvoloso 19 15 77 1018 10 N 1.8
Oggi h: 04:20 molto_nuvoloso Molto Nuvoloso 18 16 88 1018 10 N 5.5
Oggi h: 03:50 molto_nuvoloso Molto Nuvoloso 18 17 93 1018 10 N 1.8
Oggi h: 03:20 coperto Coperto 19 16 82 1018 10 N 5.5
Oggi h: 02:50 nuvoloso_piovaschi Pioggia 18 16 88 1017 10 N 7.4
Oggi h: 02:20 coperto_pioggia Pioggia 19 16 82 1018 10 O 7.4
Oggi h: 01:50 molto_nuvoloso Molto Nuvoloso 19 16 82 1017 10 O/SO 9.3
Oggi h: 00:50 poco_nuvoloso Poco Nuvoloso 18 16 88 1015 10 N 0
Oggi h: 00:20 poco_nuvoloso Poco Nuvoloso 19 16 82 1016 10 N 0
Ieri h: 23:50 molto_nuvoloso Molto Nuvoloso 19 17 88 1016 10 N 0
Ieri h: 23:20 molto_nuvoloso Molto Nuvoloso 20 17 82 1016 10 N 0
Ieri h: 22:50 molto_nuvoloso Molto Nuvoloso 20 17 82 1016 10 N 0
Ieri h: 22:20 nuvoloso Nuvoloso 21 17 77 1016 10 N 1.8
Ieri h: 21:50 molto_nuvoloso Molto Nuvoloso 21 17 77 1016 10 N 0
Ieri h: 21:20 poco_nuvoloso Poco Nuvoloso 22 16 68 1016 10 N 0
Ieri h: 20:50 nuvoloso Nuvoloso 23 17 68 1016 2 N 0
Ieri h: 20:20 molto_nuvoloso Molto Nuvoloso 24 17 64 1015 10 N 0
Ieri h: 19:50 sereno Sereno 26 15 50 1015 10 N 3.7
Ieri h: 19:20 poco_nuvoloso Poco Nuvoloso 27 15 47 1015 10 S 7.4
Ieri h: 18:20 poco_nuvoloso Poco Nuvoloso 28 14 42 1015 10 N 3.7
Ieri h: 17:50 poco_nuvoloso Poco Nuvoloso 28 14 42 1015 10 N 3.7
Ieri h: 17:20 molto_nuvoloso Molto Nuvoloso 28 14 42 1016 10 O 7.4
Ieri h: 16:50 molto_nuvoloso Molto Nuvoloso 28 15 45 1016 10 N 7.4
Ieri h: 16:20 poco_nuvoloso Poco Nuvoloso 28 15 45 1016 10 N 9.3